STARLINK-32197, 60416

Orbit data source: Space-Track

STARLINK-32197, 60416 is a payload satellite owned by SpaceX/Seattle (US) in LEO that was launched on Sat, 10 Aug 2024 UTC via an FALCON 9 launch vehicle from the Air Force Eastern Test Range (AFETR). Payload-class satellites include a variety of spacecraft equipped with specific instruments for various scientific and technological missions. These include communications satellites like Starlink; space stations such as the ISS; scientific satellites like the Hubble; Earth observation satellites from companies like Planet Labs, Umbra, and HawkEye 360; GPS; miniature CubeSats for education and research; and military/defense satellites.

Loading next visibility...
Identifier
60416, 2024-141U
Orbit
LEO
Country
Flag of USUS
Related business
Manufacturer
SpaceX/Seattle
Mission
Operational Commercial Communications
Bus & Motor
STARLINK V2M, Unknown motor
Mass
730 kg wet, ~700 kg dry
Launch date (UTC)
2024-08-10 (1 year ago)
Launch vehicle
FALCON 9
Launch site
Air Force Eastern Test Range (AFETR)
Object type
Payload
Rocket body
Debris
Shape & HBR
Box + 2 Pan, 17.7 m
Radar Cross Section
33.884 m², Large (>1 m²)

Expand to show TLE details & history
Last TLE update: 8 hours ago

TLE from 8 hours ago
0 STARLINK-32197
1 60416U 24141U   25299.76492019  .00000320  00000-0  22915-4 0  9992
2 60416  53.1601 134.8663 0001205  87.7663 272.3476 15.30195017 69155
Epoch: 2025-10-26T18:21Z
TLE epoch observation values (Epoch: 2025-10-26T18:21:29.104Z)
Latitude
Longitude
-175.88139°
Altitude
476.096 km
Speed
7.629 km/s
True Right ascension
08h 59m 27s
True Declination
0° 00' 00"
Sunlit
Object was in daylight at epoch
Visualization orbit readout
Latitude
Unknown
Longitude
Unknown
Altitude
Unknown
Speed
Unknown
Apparent Right ascension
Unknown
Apparent Declination
Unknown
Sunlit
N/A
Visualization observer readout
Local Sidereal Time
22:08:11
Azimuth
Unknown
Elevation
Unknown
Doppler factor
Unknown
Orbital elements
Apogee altitude
476.312 km
Perigee altitude
474.661 km
Semi-major axis
6,853.623 km
Eccentricity
0.00012
Inclination
53.1601°
RAAN
134.8663°
Arg. of periapsis
87.7663°
True anomaly
272.3338°
Mean anomaly
272.3476°
Eccentric anomaly
272.3407°
Mean motion
3.82528 °/min
Orbital period
94.11 mins
BSTAR
0.000022915
Loading maneuver chart data...
Computing Atmospheric mass density...
Loading historical data...
Loading historical data...
Loading historical data...
Loading historical data...
Loading historical data...
Loading historical data...
Loading historical data...

Documentation

Showing up to 5 results
|